This demonstration page uses our WeatherBlox Daily Observations layout. Learn more.

Left ArrowRight Arrow

38.89511, -77.03637

Hourly Observations for July 8, 2015

Temp ( °F °C ) Dew Point ( °F °C ) Humidity (%) Winds ( mph kmh ) Pressure ( in mb ) Visibility ( mi km ) Precip ( " mm )
12:52 am 00:52 Mostly Cloudy 81 27.2 72 22.2 74 74 SSW 8 13 30.00 1016 9 14 N/A
1:52 am 01:52 Mostly Cloudy 80 26.7 72 22.2 76 76 SSW 8 13 29.99 1016 8 13 N/A
2:52 am 02:52 Partly Cloudy 79 26.1 73 22.8 82 82 S 7 11 29.98 1015 7 11 N/A
3:52 am 03:52 Mostly Cloudy 79 26.1 72 22.2 79 79 SSW 6 9 29.98 1015 7 11 N/A
4:52 am 04:52 Partly Cloudy 79 26.1 72 22.2 79 79 SW 6 9 29.98 1015 7 11 N/A
5:52 am 05:52 Cloudy 79 26.1 72 22.2 79 79 SSW 5 7 29.98 1015 8 13 N/A
6:52 am 06:52 Cloudy 80 26.7 72 22.2 76 76 SSW 8 13 29.99 1016 7 11 N/A
7:52 am 07:52 Cloudy 81 27.2 73 22.8 77 77 SW 8 13 30.00 1016 7 11 N/A
8:52 am 08:52 Cloudy 81 27.2 73 22.8 77 77 SSW 7 11 30.01 1016 8 13 N/A
9:52 am 09:52 Cloudy 82 27.8 75 23.9 79 79 S 8 13 29.99 1016 9 14 N/A
10:52 am 10:52 Cloudy 84 28.9 75 23.9 74 74 SSE 7 11 29.99 1016 9 14 N/A
11:52 am 11:52 Cloudy 86 30 75 23.9 70 70 SSW 8 13 29.98 1015 10 16 N/A
12:52 pm 12:52 Mostly Cloudy 89 31.7 72 22.2 57 57 W 8 13 29.98 1015 10 16 N/A
1:52 pm 13:52 Mostly Cloudy 90 32.2 71 21.7 54 54 W 13 20 29.97 1015 10 16 N/A
2:41 pm 14:41 Mostly Cloudy with Light Rain 90 32 72 22 55 55 W 9 15 29.97 1015 10 16 N/A
2:52 pm 14:52 Mostly Cloudy 89 31.7 72 22.2 57 57 W 7 11 29.96 1015 10 16 N/A
3:43 pm 15:43 Cloudy with Light Rain 86 30 73 23 66 66 NW 18 30 29.97 1015 9 14 N/A
3:45 pm 15:45 Cloudy with Light Rain 84 29 73 23 70 70 NW 20 31 29.97 1015 7 11 N/A
3:52 pm 15:52 Cloudy with Heavy Rain 80 26.7 74 23.3 82 82 N 22 35 29.96 1015 3 4 0.01 0.25
3:58 pm 15:58 Cloudy with Heavy Rain 79 26 73 23 84 84 N 10 17 29.97 1015 1 2 N/A
4:18 pm 16:18 Cloudy with Light Rain 81 27 73 23 79 79 W 16 26 29.97 1015 7 11 N/A
4:21 pm 16:21 Cloudy with Light Rain 81 27 73 23 79 79 W 18 30 29.97 1015 4 6 0.20 5.08
4:25 pm 16:25 Cloudy with Heavy Rain 79 26 73 23 84 84 WSW 12 19 29.97 1015 2 3 0.25 6.35
4:28 pm 16:28 Cloudy with Light Rain 81 27 73 23 79 79 WSW 16 26 29.97 1015 2 2 N/A
4:44 pm 16:44 Cloudy with Strong Thunderstorms 79 26 73 23 84 84 W 8 13 29.97 1015 7 11 N/A
4:52 pm 16:52 Cloudy with Strong Thunderstorms 79 26.1 73 22.8 82 82 WSW 17 28 29.96 1014 6 10 0.53 13.46
4:55 pm 16:55 Cloudy with Strong Thunderstorms 79 26 72 22 79 79 WSW 21 33 29.97 1015 1 2 0.03 0.76
4:59 pm 16:59 Cloudy with Strong Thunderstorms 79 26 72 22 79 79 SW 14 22 29.97 1015 1 1 0.14 3.56
5:03 pm 17:03 Cloudy with Heavy Rain 79 26 72 22 79 79 SW 8 13 29.97 1015 7 11 N/A
5:14 pm 17:14 Cloudy 79 26 73 23 84 84 SW 7 11 29.97 1015 7 11 N/A
5:37 pm 17:37 Cloudy with Light Rain 82 28 73 23 74 74 NW 8 13 29.97 1015 10 16 0.29 7.37
5:52 pm 17:52 Cloudy with Light Rain 80 26.7 74 23.3 82 82 NW 14 22 29.97 1015 10 16 0.29 7.37
6:06 pm 18:06 Cloudy with Rain 81 27 73 23 79 79 WNW 13 20 29.97 1015 5 8 0.01 0.25
6:10 pm 18:10 Cloudy with Heavy Rain 79 26 73 23 84 84 WNW 14 22 29.97 1015 2 3 N/A
6:16 pm 18:16 Cloudy with Heavy Rain 79 26 73 23 84 84 W 12 19 29.97 1015 1 1 N/A
6:22 pm 18:22 Cloudy with Rain 79 26 73 23 84 84 W 14 22 29.97 1015 1 2 N/A
6:26 pm 18:26 Cloudy with Light Rain 79 26 73 23 84 84 W 10 17 29.97 1015 7 11 N/A
6:34 pm 18:34 Cloudy with Light Rain 79 26 73 23 84 84 W 10 17 29.97 1015 8 13 N/A
6:52 pm 18:52 Cloudy with Light Rain 79 26.1 72 22.2 79 79 W 9 15 29.97 1015 7 11 0.26 6.60
7:22 pm 19:22 Cloudy 79 26 73 23 84 84 SSW 8 13 29.97 1015 10 16 N/A
7:37 pm 19:37 Cloudy with Light Rain 79 26 73 23 84 84 SSW 5 7 29.97 1015 10 16 0.01 0.25
7:52 pm 19:52 Cloudy with Light Rain 79 26.1 74 23.3 85 85 WSW 7 11 29.98 1015 10 16 0.02 0.51
8:00 pm 20:00 Cloudy 79 26 73 23 84 84 SW 8 13 30.00 1016 10 16 N/A
8:10 pm 20:10 Cloudy with Light Rain 79 26 73 23 84 84 SW 9 15 30.00 1016 8 13 N/A
8:30 pm 20:30 Mostly Cloudy 79 26 73 23 84 84 WSW 8 13 30.00 1016 10 16 N/A
8:52 pm 20:52 Mostly Cloudy 79 26 73 23 84 84 WSW 9 15 30.00 1016 10 16 N/A
9:18 pm 21:18 Mostly Cloudy with Light Rain 79 26 73 23 84 84 N N/A 29.97 1015 10 16 N/A
9:52 pm 21:52 Mostly Cloudy 79 26.1 73 22.8 82 82 N N/A 30.00 1016 10 16 N/A
10:52 pm 22:52 Mostly Cloudy 79 26.1 73 22.8 82 82 N N/A 30.00 1016 10 16 N/A
11:52 pm 23:52 Mostly Cloudy 78 25.6 73 22.8 85 85 WSW 3 6 30.00 1016 10 16 N/A

Powered by AerisWeather